Regional Weather Roundup
Issued by NWS

Home | Current Version | Previous Version | Text Only | Print | Product List | Glossary Off
Versions: 1 2 3 4 5 6 7 8 9 10 11 12 13 14 15 16 17 18 19 20 21 22 23 24 25 26 27 28 29 30 31 32 33 34 35 36 37 38 39 40 41 42 43 44 45 46 47 48 49 50

000
ASUS43 KDTX 221910
RWRMI
MICHIGAN HOURLY REGIONAL WEATHER ROUNDUP
NATIONAL WEATHER SERVICE DETROIT/PONTIAC MI
300 PM EDT TUE APR 22 2014

NOTE: "FAIR" INDICATES FEW OR NO CLOUDS BELOW 12,000 FEET WITH NO
SIGNIFICANT WEATHER AND/OR OBSTRUCTION TO VISIBILITY.

MIZ047>049-052>055-059>063-066>070-074>076-081>083-222000-
SOUTHEAST LOWER MICHIGAN

CITY           SKY/WX    TMP DP  RH WIND       PRES   REMARKS
ADRIAN         MOSUNNY   55  33  43 NW15G28   29.81R
ALMA           CLOUDY    45  31  59 NW20G29   29.86R
ANN ARBOR      CLOUDY    51  32  48 NW15G23   29.79S
BAD AXE        CLOUDY    43  34  70 NW20G25   29.76R
DETROIT CITY   CLOUDY    55  32  41 NW16G25   29.77R
DETROIT        PTSUNNY   54  33  45 NW18G28   29.78R
FLINT          CLOUDY    51  34  52 NW23G30   29.80S
GROSSE ILE     PTSUNNY   55  32  41 NW22G32   29.76R
HILLSDALE      PTSUNNY   54  32  43 NW21      29.82R
HOWELL         CLOUDY    50  33  53 NW14G24   29.80R

CITY           SKY/WX    TMP DP  RH WIND       PRES   REMARKS
JACKSON        CLOUDY    51  33  50 NW13G25   29.82R
LAMBERTVILLE   PTSUNNY   57  32  38 NW13G22   29.79R
LANSING        CLOUDY    49  32  52 NW20G26   29.84R
LAPEER         NOT AVBL
MASON          PTSUNNY   50  34  53 NW17G24   29.82R
MONROE         PTSUNNY   55  36  47 NW23      29.77R
MT. CLEMENS    PTSUNNY   51  34  53 W20G29    29.75R
PONTIAC        PTSUNNY   49  33  54 NW18G31   29.77R
PORT HOPE        N/A     43  35  73 W13G25    29.73R
PORT HURON     CLOUDY    46  36  66 NW14      29.76R
TRI CITIES     CLOUDY    48  33  56 W22G35    29.81R
YPSILANTI      CLOUDY    56  33  42 W21G29    29.79R
$$
MIZ043>046-050>051-056>058-064>065-071>073-077>080-222000-
SOUTHWEST LOWER MICHIGAN

CITY           SKY/WX    TMP DP  RH WIND       PRES   REMARKS
BATTLE CREEK   PTSUNNY   51  33  50 NW17G26   29.86S
BENTON HARBOR  SUNNY     44  32  62 N9G24     29.97R
BIG RAPIDS     CLOUDY    42  31  65 NW10G22   29.89R
COLDWATER      PTSUNNY   51  32  49 NW17G26   29.84S
HOLLAND        SUNNY     48  32  53 NW16G29   29.94R
GRAND RAPIDS   PTSUNNY   48  31  51 NW20G31   29.90R
KALAMAZOO      PTSUNNY   52  33  48 NW17G25   29.89R
MARSHALL       CLOUDY    51  33  49 NW10G22   29.84R
MUSKEGON       PTSUNNY   48  30  49 NW22G29   29.94R
$$
MIZ016>042-222000-
NORTHERN LOWER MICHIGAN

CITY           SKY/WX    TMP DP  RH WIND       PRES   REMARKS
ALPENA         CLOUDY    40  34  79 W13G25    29.76R
BEAVER ISLAND  CLOUDY    38  31  76 NW16G24   29.90R
BELLAIRE       FLURRIES  36  31  83 NW12G18   29.90R
CADILLAC       LGT SNOW  36  33  88 NW16G23   29.87R
CHARLEVOIX     CLOUDY    36  33  86 NW10      29.93R
FRANKFORT      CLOUDY    39  31  71 N10G21    29.95R
GAYLORD        LGT SNOW  33  31  92 NW13G24   29.82R FOG
GRAYLING       CLOUDY    35  33  91 NW20G28   29.84R FOG
HARBOR SPRINGS CLOUDY    38  32  78 W10G25    29.86R
HOUGHTON LAKE  CLOUDY    38  31  76 NW17G30   29.84R
MANISTEE       CLOUDY    43  28  56 N14G24    29.96R
OSCODA         CLOUDY    46  34  64 W20G32    29.73S
PELLSTON       CLOUDY    39  30  70 NW17G33   29.84R
TRAVERSE CITY  CLOUDY    38  29  70 NW15      29.92R
$$
MIZ007>008-015-222000-
EASTERN UPPER MICHIGAN

CITY           SKY/WX    TMP DP  RH WIND       PRES   REMARKS
KINROSS        CLOUDY    39  30  70 NW30G37   29.77S
MACKINAC ISLAN CLOUDY    40  31  70 NW17G26   29.81R
NEWBERRY       CLOUDY    33  29  85 NW15G24   29.89R
S. S. MARIE    CLOUDY    38  30  73 NW20G29   29.79R
$$
MIZ004>006-011>014-085-222000-
CENTRAL UPPER MICHIGAN

CITY           SKY/WX    TMP DP  RH WIND       PRES   REMARKS
MANISTIQUE     CLOUDY    39  31  71 NW21G35   29.93R
ESCANABA       CLOUDY    43  27  52 NW14G23   29.95S
MENOMINEE      CLOUDY    45  25  45 NW15G29   29.97R
SAWYER-GWINN   CLOUDY    37  27  65 NW18G24   29.97R
$$
MIZ001>003-009>011-084-222000-
WESTERN UPPER MICHIGAN

CITY           SKY/WX    TMP DP  RH WIND       PRES   REMARKS
IRON MOUNTAIN  CLOUDY    41  25  53 NW17G25   29.98R
HOUGHTON       CLOUDY    35  26  69 NW15      30.03R
COPPER HARBOR    N/A     35  28  75 N16       30.02R
IRONWOOD       MOSUNNY   41  27  56 NW12G21   30.04S
$$

ABBREVIATIONS USED IN REMARKS
   TC - TEMPERATURE IN CELSIUS
  WCI - WIND CHILL INDEX
   HX - HEAT INDEX
  VSB - VISIBILITY




USA.gov is the U.S. government's official web portal to all federal, state and local government web resources and services.